TimeEDT,TemperatureF,Dew PointF,Humidity,Sea Level PressureIn,VisibilityMPH,Wind Direction,Wind SpeedMPH,Gust SpeedMPH,PrecipitationIn,Events,Conditions,WindDirDegrees,DateUTC
12:53 AM,75.9,73.0,91,29.93,10.0,SSE,8.1,-,0.00,Rain,Light Rain,160,2013-07-01 04:53:00
1:53 AM,75.9,73.0,91,29.92,10.0,SSE,5.8,-,N/A,,Partly Cloudy,160,2013-07-01 05:53:00
2:53 AM,75.9,73.0,91,29.91,10.0,South,6.9,-,N/A,,Partly Cloudy,170,2013-07-01 06:53:00
3:53 AM,75.9,73.0,91,29.91,10.0,SSE,4.6,-,N/A,,Partly Cloudy,150,2013-07-01 07:53:00
4:26 AM,75.2,73.4,94,29.92,10.0,Calm,Calm,-,N/A,,Mostly Cloudy,0,2013-07-01 08:26:00
4:48 AM,75.2,73.4,94,29.91,10.0,South,4.6,-,N/A,,Overcast,180,2013-07-01 08:48:00
4:53 AM,75.9,73.0,91,29.91,10.0,South,4.6,-,N/A,,Overcast,170,2013-07-01 08:53:00
5:53 AM,75.9,73.0,91,29.91,10.0,South,6.9,-,N/A,,Partly Cloudy,180,2013-07-01 09:53:00
6:22 AM,77.0,73.4,89,29.92,2.0,South,9.2,18.4,0.06,Rain,Light Rain,190,2013-07-01 10:22:00
6:34 AM,77.0,73.4,89,29.93,5.0,South,10.4,-,0.06,,Overcast,190,2013-07-01 10:34:00
6:53 AM,77.0,73.0,88,29.94,10.0,South,10.4,-,0.06,,Scattered Clouds,190,2013-07-01 10:53:00
7:53 AM,77.0,73.9,90,29.96,10.0,South,9.2,-,0.00,Rain,Light Rain,190,2013-07-01 11:53:00
8:53 AM,78.1,73.0,84,29.96,10.0,SSW,12.7,19.6,0.00,,Scattered Clouds,200,2013-07-01 12:53:00
9:53 AM,82.0,73.9,76,29.95,10.0,South,11.5,-,N/A,,Scattered Clouds,180,2013-07-01 13:53:00
10:53 AM,84.9,73.9,69,29.97,10.0,SSW,13.8,19.6,N/A,,Mostly Cloudy,200,2013-07-01 14:53:00
11:13 AM,84.2,73.4,70,29.98,10.0,South,13.8,20.7,N/A,,Scattered Clouds,190,2013-07-01 15:13:00
11:53 AM,84.9,75.0,72,29.99,10.0,South,11.5,18.4,N/A,,Scattered Clouds,180,2013-07-01 15:53:00
12:53 PM,87.1,73.9,65,29.98,10.0,SSW,10.4,-,N/A,,Scattered Clouds,200,2013-07-01 16:53:00
1:53 PM,86.0,73.4,66,29.96,10.0,SSE,10.4,-,N/A,,Mostly Cloudy,150,2013-07-01 17:53:00
2:02 PM,84.2,73.4,70,29.98,10.0,SSE,27.6,41.4,0.00,Rain-Thunderstorm,Thunderstorms and Rain,150,2013-07-01 18:02:00
2:33 PM,78.8,71.6,78,29.96,10.0,ESE,10.4,-,0.06,,Scattered Clouds,120,2013-07-01 18:33:00
2:53 PM,78.1,70.0,76,29.98,10.0,South,17.3,21.9,0.06,,Scattered Clouds,190,2013-07-01 18:53:00
3:07 PM,77.0,69.8,78,29.98,9.0,South,9.2,19.6,0.00,Rain,Light Rain,190,2013-07-01 19:07:00
3:53 PM,78.1,70.0,76,29.99,10.0,SW,9.2,-,0.00,,Mostly Cloudy,220,2013-07-01 19:53:00
4:46 PM,73.4,71.6,94,30.00,2.0,SW,6.9,-,0.08,Rain,Rain,220,2013-07-01 20:46:00
4:53 PM,75.0,72.0,90,30.01,3.0,South,3.5,-,0.10,Rain,Rain,180,2013-07-01 20:53:00
5:25 PM,75.2,71.6,89,30.01,10.0,SSE,5.8,-,0.02,Rain,Light Rain,150,2013-07-01 21:25:00
5:53 PM,73.0,70.0,90,30.01,8.0,SE,6.9,-,0.05,Rain,Rain,140,2013-07-01 21:53:00
6:53 PM,75.0,72.0,90,30.02,10.0,South,3.5,-,0.03,Rain,Light Rain,190,2013-07-01 22:53:00
7:53 PM,75.0,72.0,90,30.01,10.0,South,3.5,-,0.01,,Scattered Clouds,190,2013-07-01 23:53:00
8:53 PM,75.0,72.0,90,30.01,10.0,Calm,Calm,-,N/A,,Clear,0,2013-07-02 00:53:00
9:53 PM,75.0,72.0,90,30.04,10.0,SE,4.6,-,N/A,,Clear,140,2013-07-02 01:53:00
10:53 PM,75.0,72.0,90,30.05,10.0,SSE,4.6,-,N/A,,Clear,150,2013-07-02 02:53:00
11:53 PM,75.9,72.0,87,30.06,10.0,ESE,6.9,-,N/A,,Clear,120,2013-07-02 03:53:00